TITAN 3C TRANSTAGE DEB, 1722

Orbit data source: Space-Track

TITAN 3C TRANSTAGE DEB, 1722 is space debris in LEO originally from a launch on Fri, 15 Oct 1965 UTC launched from the Air Force Eastern Test Range (AFETR). Debris objects in space refer to the collection of defunct objects orbiting the Earth. Examples of debris include non-operational satellites, rocket bodies, and fragments generated from explosions, collisions, or faulty payload assembly.

Loading next visibility...
Identifier
1722, 1965-082CD
Orbit
LEO
Country
Flag of USUS
Related business
Manufacturer
Unknown
Mission
Spacecraft
Bus & Motor
Unknown
Mass
Unknown
Launch date (UTC)
1965-10-15 (61 years ago)
Launch vehicle
Unknown
Launch site
Air Force Eastern Test Range (AFETR)
Object type
Payload
Rocket body
Debris
Shape & HBR
Unknown shape, 0.2 m
Radar Cross Section
Medium (>0.1 m² and <1 m²)

Expand to show TLE details & history
Last TLE update: 1 day ago

TLE from 1 day ago
0 TITAN 3C TRANSTAGE DEB
1 01722U 65082CD  26173.62974935  .00000462  00000-0  80032-4 0  9996
2 01722  32.4183 282.3992 0027165 198.4963 161.4701 14.64061614199801
Epoch: 2026-06-22T15:06Z
TLE epoch observation values (Epoch: 2026-06-22T15:06:50.343Z)
Latitude
-0.00003°
Longitude
144.87648°
Altitude
696.947 km
Speed
7.5 km/s
True Right ascension
18h 49m 35s
True Declination
0° 00' 00"
Sunlit
Object was in full shadow at epoch
Visualization orbit readout
Latitude
Unknown
Longitude
Unknown
Altitude
Unknown
Speed
Unknown
Apparent Right ascension
Unknown
Apparent Declination
Unknown
Sunlit
N/A
Visualization observer readout
Local Sidereal Time
09:27:44
Azimuth
Unknown
Elevation
Unknown
Doppler factor
Unknown
Orbital elements
Apogee altitude
702.829 km
Perigee altitude
664.462 km
Semi-major axis
7,061.782 km
Eccentricity
0.00272
Inclination
32.4183°
RAAN
282.3992°
Arg. of periapsis
198.4963°
True anomaly
161.56871°
Mean anomaly
161.4701°
Eccentric anomaly
161.51944°
Mean motion
3.65739 °/min
Orbital period
98.43 mins
BSTAR
0.000080032

Documentation

Showing up to 5 results
|